Home   Weather   Christchurch   Past weeks
Flag for New Zealand

Past Weather in Christchurch, New Zealand — Yesterday and Last 2 Weeks

Now
54 °F

Passing clouds.


Feels Like: 52 °F
Forecast: 60 / 44 °F
Wind: 6 mph from West

Location: Christchurch Airport

Current Time: Oct 17, 2019 at 11:30:22 am

Latest Report: Oct 17, 2019 at 10:30 am


Visibility: N/A

Pressure: 29.77 "Hg

Humidity: 88%

Dew Point: 50 °F

Location of ChristchurchLocation

Past Weather in Christchurch — Graph

°F

Christchurch Temperature Yesterday

Maximum temperature yesterday: 59 °F (at 2:30 pm)
Minimum temperature yesterday: 46 °F (at 11:30 pm)
Average temperature yesterday: 52 °F

High & Low Weather Summary for the Past Weeks

 TemperatureHumidityPressure
High72 °F (Oct 8, 2:30 pm)100% (Oct 4, 3:30 am)30.18 "Hg (Oct 4, 3:30 am)
Low27 °F (Oct 4, 6:30 am)38% (Oct 8, 3:00 pm)29.47 "Hg (Oct 5, 5:30 am)
Average51 °F79%29.91 "Hg
* Reported Oct 2 10:00 am — Oct 17 10:30 am, Christchurch. Weather by CustomWeather, © 2019

Note: Actual official high and low records may vary slightly from our data, if they occured in-between our weather recording intervals... More about our weather records

Advertising

Christchurch Weather History for the Previous 24 Hours

Scroll right to see more
 ConditionsComfort  
Time TempWeatherWind HumidityBarometerVisibility
10:30 am
Thu, Oct 17
54 °FPassing clouds.6 mph88%29.77 "HgN/A
10:00 am52 °FPassing clouds.6 mph94%29.74 "HgN/A
9:30 am52 °FPartly sunny.8 mph94%29.74 "HgN/A
9:00 am50 °FPassing clouds.7 mph94%29.74 "HgN/A
8:30 am48 °FCool.6 mph100%29.74 "HgN/A
8:00 am46 °FCool.6 mph100%29.74 "HgN/A
7:30 am45 °FFog.5 mph100%29.71 "Hg2 mi
7:00 am45 °FFog.5 mph100%29.71 "Hg0 mi
6:30 am45 °FFog.3 mph100%29.68 "Hg0 mi
6:00 am46 °FFog.5 mph100%29.68 "Hg1 mi
5:30 am46 °FFog.5 mph100%29.68 "Hg1 mi
5:00 am46 °FFog.5 mph100%29.68 "Hg1 mi
4:30 am46 °FLow clouds.5 mph100%29.65 "Hg1 mi
4:00 am45 °FPassing clouds.5 mph100%29.65 "HgN/A
3:30 am45 °FPassing clouds.3 mph100%29.65 "HgN/A
3:00 am45 °FPassing clouds.5 mph100%29.65 "HgN/A
2:30 am45 °FPassing clouds.3 mph100%29.65 "HgN/A
2:00 am45 °FPassing clouds.5 mph100%29.65 "HgN/A
1:30 am45 °FPassing clouds.3 mph100%29.65 "HgN/A
1:00 am46 °FCool.5 mph93%29.65 "HgN/A
12:30 am46 °FCool.3 mph100%29.68 "HgN/A
12:00 am46 °FFog.3 mph100%29.68 "Hg5 mi
11:30 pm
Wed, Oct 16
46 °FCool.2 mph100%29.68 "HgN/A
11:00 pm50 °FPassing clouds.2 mph94%29.68 "HgN/A
10:30 pm50 °FOvercast.3 mph94%29.68 "HgN/A
10:00 pm50 °FOvercast.2 mph94%29.68 "HgN/A
9:30 pm48 °FPassing clouds.3 mph94%29.68 "HgN/A
9:00 pm48 °FCool.5 mph94%29.68 "HgN/A
8:30 pm50 °FPassing clouds.3 mph94%29.65 "HgN/A
8:00 pm50 °FCool.7 mph94%29.65 "HgN/A
7:30 pm50 °FCool.6 mph94%29.65 "HgN/A
7:00 pm52 °FPassing clouds.7 mph94%29.65 "HgN/A
6:30 pm54 °FCloudy.9 mph88%29.65 "HgN/A
6:00 pm55 °FBroken clouds.12 mph82%29.62 "HgN/A
5:30 pm59 °FPartly sunny.10 mph77%29.65 "HgN/A
5:00 pm57 °FBroken clouds.7 mph77%29.65 "HgN/A
4:30 pm57 °FPartly sunny.3 mph72%29.65 "HgN/A
3:30 pm57 °FBroken clouds.8 mph77%29.68 "HgN/A
3:00 pm57 °FBroken clouds.7 mph72%29.68 "HgN/A
2:30 pm59 °FCloudy.10 mph68%29.68 "HgN/A
2:00 pm57 °FBroken clouds.9 mph72%29.71 "HgN/A
1:30 pm57 °FPartly sunny.7 mph72%29.71 "HgN/A
1:00 pm55 °FOvercast.7 mph82%29.71 "HgN/A
12:30 pm54 °FBroken clouds.9 mph88%29.74 "HgN/A
12:00 pm55 °FBroken clouds.8 mph77%29.74 "HgN/A
11:30 am55 °FBroken clouds.7 mph82%29.74 "HgN/A
11:00 am54 °FPartly sunny.7 mph88%29.77 "HgN/A
Weather by CustomWeather, © 2019

See weather overview